Regional Weather Roundup
Issued by NWS

Home | Current Version | Previous Version | Text Only | Print | Product List | Glossary On
Versions: 1 2 3 4 5 6 7 8 9 10 11 12 13 14 15 16 17 18 19 20 21 22 23 24 25 26 27 28 29 30 31 32 33 34 35 36 37 38 39 40 41 42 43 44 45 46 47 48 49 50
000
ASUS43 KDMX 301906
RWRIA

WEATHER ROUNDUP FOR IOWA
NATIONAL WEATHER SERVICE DES MOINES IA
200 PM CDT SUN APR 30 2017

NOTE: "FAIR" INDICATES FEW OR NO CLOUDS BELOW 12,000 FEET WITH NO
SIGNIFICANT WEATHER AND/OR OBSTRUCTIONS TO VISIBILITY.

* - THESE STATIONS ARE NOT NWS STATIONS...THUS NOT UNDER NWS
QUALITY CONTROL.  THEY ALSO DO NOT REPORT WEATHER SUCH
AS PRECIPITATION OR FOG.

IAZ001>003-012>014-020>022-031>034-043>046-302000-
   NORTHWEST IOWA

CITY           SKY/WX    TMP DP  RH WIND       PRES   REMARKS
CARROLL *      CLOUDY    43  41  93 E29G37    29.63F
CHEROKEE *     CLOUDY    40  38  92 NE17G26   29.70F WCI  31
DENISON *      CLOUDY    41  39  93 NE22G38   29.61F
ORANGE CITY *  LGT RAIN  37  37 100 NE14G29   29.71F WCI  29
SHELDON *      CLOUDY    39  36  87 NE33G40   29.72F WCI  27
SIOUX CITY     LGT RAIN  41  38  89 NE23G35   29.67F
SPENCER        CLOUDY    39  37  92 NE29G35   29.74F WCI  27
STORM LAKE *   CLOUDY    39  37  93 NE31G40   29.68F WCI  27
$$

IAZ055>058-069>071-079>083-090>094-302000-
   SOUTHWEST IOWA

CITY           SKY/WX    TMP DP  RH WIND       PRES   REMARKS
ATLANTIC *     MIX PCPN  43  41  93 NE25G39   29.51F
AUDUBON *      LGT RAIN  41  39  93 NE26G40   29.56F
CLARINDA *     CLOUDY    46  45  93 E8G25     29.53R FOG
COUNCIL BLFS * CLOUDY    43  43 100 NE21G35   29.52R FOG
CRESTON *      LGT RAIN  43  43 100 NE26G40   29.52F
HARLAN  *      CLOUDY    41  41 100 NE28G38   29.55F
LAMONI         CLOUDY    45  44  97 NE20G29   29.50F FOG
RED OAK *      MIX PCPN  45  45 100 E22G31    29.49F
SHENANDOAH *   FOG       46  45  93 E8        29.56R VSB 1
$$

IAZ047>049-059>061-072>074-084-302000-
   CENTRAL IOWA

CITY           SKY/WX    TMP DP  RH WIND       PRES   REMARKS
AMES           CLOUDY    43  42  97 E21G30    29.66F
ANKENY *       CLOUDY    43  41  93 E18G25    29.65F
BOONE *        CLOUDY    41  41 100 E24G31    29.66R
CHARITON *     CLOUDY    45  43  93 NE16G25   29.57F
DES MOINES     LGT RAIN  44  42  93 E21G31    29.60F
GRINNELL*      LGT RAIN  42  41  96 E24G30    29.68S
KNOXVILLE *    CLOUDY    45  43  93 E15G24    29.59F
MARSHALLTOWN   LGT RAIN  43  41  93 E30G40    29.64F
NEWTON *       CLOUDY    43  41  93 E25G35    29.60F FOG
PELLA *        LGT RAIN  43  42  97 E16G30    29.62F
PERRY *        CLOUDY    42  41  93 NE25G33   29.64F
$$

IAZ004>006-015-016-023>025-035-036-302000-
   NORTH CENTRAL IOWA

CITY           SKY/WX    TMP DP  RH WIND       PRES   REMARKS
ALGONA *       CLOUDY    43  39  87 NE29G36   29.74F
CLARION *      CLOUDY    43  43 100 NE21G31   29.71R
ESTHERVILLE    CLOUDY    39  38  96 NE26G36   29.75F WCI  28
FORT DODGE *   CLOUDY    43  36  75 NE22G31   29.70F
MASON CITY     CLOUDY    42  37  82 NE24G30   29.76F
FOREST CITY *  CLOUDY    43  32  65 NE21G26   29.75F
WEBSTER CITY * CLOUDY    43  39  87 NE25G37   29.67S
IOWA FALLS *   DRIZZLE   43  40  89 NE18G36   29.67F
$$

IAZ007>011-017>019-026>030-037>042-050>054-066-302000-
   NORTHEAST IOWA

CITY           SKY/WX    TMP DP  RH WIND       PRES   REMARKS
CEDAR RAPIDS   CLOUDY    44  43  96 E20G26    29.72F
CHARLES CITY * CLOUDY    43  39  87 NE28G33   29.74F
CLINTON *      CLOUDY    47  44  90 E18       29.77R
DECORAH *      CLOUDY    43  37  81 E12G22    29.79F
DUBUQUE        CLOUDY    44  41  89 E23       29.77F
MONTICELLO *   CLOUDY    45  41  87 NE14G22   29.76F
OELWEIN *      CLOUDY    43  41  93 E23G32    29.75F
WATERLOO       CLOUDY    44  38  79 E23G33    29.72F
$$

IAZ064-065-067-068-078-302000-
   EAST CENTRAL IOWA

CITY           SKY/WX    TMP DP  RH WIND       PRES   REMARKS
DAVENPORT      LGT RAIN  46  44  93 E14       29.76S FOG
IOWA CITY      CLOUDY    46  43  89 E12       29.74F
MT. PLEASANT * LGT RAIN  46  46 100 NE17G24   29.68F
MUSCATINE *    CLOUDY    46  45  93 NE12      29.72F FOG
QUAD CITIES    LGT RAIN  47  44  90 E14       29.75R FOG
$$

IAZ062-063-075>077-085>089-095>099-302000-
   SOUTHEAST IOWA

CITY           SKY/WX    TMP DP  RH WIND       PRES   REMARKS
BURLINGTON     LGT RAIN  48  48 100 NE17G23   29.68F FOG
FAIRFIELD *    CLOUDY    46  45  93 E20       29.66F
FORT MADISON * CLOUDY    48  46  93 E13       29.67F
KEOKUK *       CLOUDY    48  46  93 E16       29.63F
OSKALOOSA *    LGT RAIN  44  43  97 E21       29.64F
CENTERVILLE *  CLOUDY    46  46 100 E12G28    29.57F
OTTUMWA        LGT RAIN  46  45  96 E22G28    29.63F
WASHINGTON *   LGT RAIN  45  45 100 NE20G26   29.69F
$$

ABBREVIATIONS USED IN REMARKS
   TC - TEMPERATURES IN CELSIUS
  WCI - WIND CHILL INDEX
   HX - HEAT INDEX
  VSB - VISIBILITY
$$




USA.gov is the U.S. government's official web portal to all federal, state and local government web resources and services.